| time (UTC) | temp C | wind direction | speed KPH | gust KPH | rain 1hr cm | rain 24hr cm | rain mn cm | humidity % | barometer mb |
| 20260906100035 | 17 | 83 | 4.8 | 6.4 | 0.00 | 0.00 | 0.00 | 86 | 1018.0 |
| 20260906095530 | 17 | 88 | 1.6 | 6.4 | 0.00 | 0.00 | 0.00 | 85 | 1018.0 |
| 20260906095026 | 17 | 81 | 1.6 | 4.8 | 0.00 | 0.00 | 0.00 | 84 | 1017.9 |
| 20260906094524 | 17 | 108 | 3.2 | 8.0 | 0.00 | 0.00 | 0.00 | 84 | 1018.0 |
| 20260906094020 | 18 | 61 | 4.8 | 4.8 | 0.00 | 0.00 | 0.00 | 84 | 1017.8 |
| 20260906093516 | 18 | 125 | 0.0 | 4.8 | 0.00 | 0.00 | 0.00 | 85 | 1017.7 |
| 20260906093011 | 18 | 102 | 1.6 | 4.8 | 0.00 | 0.00 | 0.00 | 85 | 1017.7 |
| 20260906092511 | 18 | 96 | 6.4 | 6.4 | 0.00 | 0.00 | 0.00 | 85 | 1017.8 |
| 20260906092006 | 18 | 29 | 4.8 | 6.4 | 0.00 | 0.00 | 0.00 | 85 | 1017.7 |
| 20260906091501 | 18 | 69 | 0.0 | 4.8 | 0.00 | 0.00 | 0.00 | 85 | 1018.0 |
| 20260906090958 | 18 | 67 | 1.6 | 4.8 | 0.00 | 0.00 | 0.00 | 84 | 1017.9 |
| 20260906090453 | 18 | 229 | 6.4 | 6.4 | 0.00 | 0.00 | 0.00 | 84 | 1017.8 |
| 20260906085953 | 18 | 66 | 0.0 | 4.8 | 0.00 | 0.00 | 0.00 | 84 | 1017.8 |
| 20260906085452 | 18 | 88 | 0.0 | 8.0 | 0.00 | 0.00 | 0.00 | 84 | 1018.0 |
| 20260906084951 | 18 | 85 | 0.0 | 3.2 | 0.00 | 0.00 | 0.00 | 84 | 1017.9 |
| 20260906084446 | 18 | 126 | 3.2 | 6.4 | 0.00 | 0.00 | 0.00 | 84 | 1017.8 |
| 20260906083945 | 18 | 67 | 3.2 | 8.0 | 0.00 | 0.00 | 0.00 | 84 | 1017.9 |
| 20260906083441 | 18 | 112 | 1.6 | 4.8 | 0.00 | 0.00 | 0.00 | 84 | 1017.9 |
| 20260906082940 | 18 | 82 | 1.6 | 6.4 | 0.00 | 0.00 | 0.00 | 84 | 1017.4 |
| 20260906082436 | 18 | 53 | 1.6 | 4.8 | 0.00 | 0.00 | 0.00 | 83 | 1017.7 |
| 20260906081931 | 18 | 2 | 1.6 | 8.0 | 0.00 | 0.00 | 0.00 | 85 | 1017.7 |
| 20260906081426 | 18 | 73 | 1.6 | 6.4 | 0.00 | 0.00 | 0.00 | 87 | 1017.6 |
| 20260906080922 | 19 | 27 | 0.0 | 4.8 | 0.00 | 0.00 | 0.00 | 87 | 1017.7 |
| 20260906080419 | 19 | 77 | 1.6 | 3.2 | 0.00 | 0.00 | 0.00 | 86 | 1017.7 |
| 20260906075918 | 19 | 38 | 0.0 | 4.8 | 0.00 | 0.00 | 0.00 | 86 | 1017.8 |
| 20260906075414 | 19 | 29 | 0.0 | 3.2 | 0.00 | 0.00 | 0.00 | 86 | 1017.8 |
| 20260906074909 | 19 | 17 | 3.2 | 3.2 | 0.00 | 0.00 | 0.00 | 87 | 1017.7 |
| 20260906074408 | 20 | 14 | 3.2 | 3.2 | 0.00 | 0.00 | 0.00 | 88 | 1017.7 |
| 20260906073907 | 20 | 73 | 3.2 | 3.2 | 0.00 | 0.00 | 0.00 | 88 | 1017.8 |
| 20260906073402 | 20 | 87 | 3.2 | 6.4 | 0.00 | 0.00 | 0.00 | 87 | 1017.7 |
| 20260906072859 | 20 | 66 | 8.0 | 12.9 | 0.00 | 0.00 | 0.00 | 91 | 1017.7 |
| 20260906072354 | 20 | 122 | 0.0 | 4.8 | 0.00 | 0.00 | 0.00 | 92 | 1017.8 |
| 20260906071850 | 20 | 69 | 4.8 | 4.8 | 0.00 | 0.00 | 0.00 | 93 | 1017.9 |
| 20260906071345 | 20 | 85 | 3.2 | 4.8 | 0.00 | 0.00 | 0.00 | 93 | 1017.9 |
| 20260906070841 | 20 | 62 | 0.0 | 6.4 | 0.00 | 0.00 | 0.00 | 93 | 1018.0 |
| 20260906070337 | 20 | 112 | 6.4 | 8.0 | 0.00 | 0.00 | 0.00 | 93 | 1017.9 |
| 20260906065832 | 20 | 142 | 1.6 | 4.8 | 0.00 | 0.00 | 0.00 | 93 | 1017.7 |
| 20260906065326 | 20 | 126 | 3.2 | 4.8 | 0.00 | 0.00 | 0.00 | 93 | 1017.9 |
| 20260906064823 | 20 | 62 | 0.0 | 6.4 | 0.00 | 0.00 | 0.00 | 93 | 1017.7 |
| 20260906064319 | 20 | 124 | 1.6 | 3.2 | 0.00 | 0.00 | 0.00 | 94 | 1017.6 |
| 20260906063818 | 20 | 86 | 0.0 | 1.6 | 0.00 | 0.00 | 0.00 | 94 | 1017.7 |
| 20260906063314 | 20 | 103 | 0.0 | 4.8 | 0.00 | 0.00 | 0.00 | 94 | 1017.8 |
| 20260906062809 | 20 | 23 | 0.0 | 3.2 | 0.00 | 0.00 | 0.00 | 94 | 1017.6 |
| 20260906062308 | 20 | 39 | 0.0 | 1.6 | 0.00 | 0.00 | 0.00 | 94 | 1017.6 |
| 20260906061804 | 20 | 99 | 1.6 | 1.6 | 0.00 | 0.00 | 0.00 | 94 | 1017.7 |
| 20260906061300 | 20 | 11 | 3.2 | 3.2 | 0.00 | 0.00 | 0.00 | 93 | 1017.6 |
| 20260906060755 | 20 | 119 | 0.0 | 3.2 | 0.00 | 0.00 | 0.00 | 94 | 1017.6 |
| 20260906060253 | 20 | 124 | 0.0 | 3.2 | 0.00 | 0.00 | 0.00 | 93 | 1017.4 |
| 20260906055748 | 20 | 95 | 1.6 | 3.2 | 0.00 | 0.00 | 0.00 | 93 | 1017.6 |
| 20260906055243 | 20 | 45 | 1.6 | 6.4 | 0.00 | 0.00 | 0.00 | 93 | 1017.5 |
| 20260906054738 | 20 | 6 | 1.6 | 4.8 | 0.00 | 0.00 | 0.00 | 93 | 1017.5 |
| 20260906054234 | 20 | 32 | 3.2 | 4.8 | 0.00 | 0.00 | 0.00 | 93 | 1017.5 |
| 20260906053730 | 20 | 97 | 3.2 | 4.8 | 0.00 | 0.00 | 0.00 | 92 | 1017.3 |
| 20260906053226 | 20 | 8 | 3.2 | 8.0 | 0.00 | 0.00 | 0.00 | 92 | 1017.3 |
| 20260906052720 | 21 | 33 | 0.0 | 6.4 | 0.00 | 0.00 | 0.00 | 92 | 1017.2 |
| 20260906052217 | 21 | 82 | 3.2 | 3.2 | 0.00 | 0.00 | 0.00 | 92 | 1017.2 |
| 20260906051714 | 21 | 122 | 0.0 | 4.8 | 0.00 | 0.00 | 0.00 | 91 | 1017.2 |
| 20260906051213 | 21 | 32 | 0.0 | 3.2 | 0.00 | 0.00 | 0.00 | 91 | 1017.1 |
| 20260906050708 | 21 | 176 | 1.6 | 1.6 | 0.00 | 0.00 | 0.00 | 90 | 1017.3 |
| 20260906050204 | 21 | 19 | 3.2 | 6.4 | 0.00 | 0.00 | 0.00 | 90 | 1017.2 |
| 20260906045702 | 21 | 107 | 0.0 | 3.2 | 0.00 | 0.00 | 0.00 | 89 | 1017.2 |
| 20260906045157 | 21 | 84 | 0.0 | 3.2 | 0.00 | 0.00 | 0.00 | 89 | 1017.1 |
| 20260906044653 | 21 | 23 | 0.0 | 4.8 | 0.00 | 0.00 | 0.00 | 88 | 1017.0 |
| 20260906044148 | 21 | 35 | 0.0 | 3.2 | 0.00 | 0.00 | 0.00 | 89 | 1017.0 |
| 20260906043644 | 21 | 70 | 3.2 | 6.4 | 0.00 | 0.00 | 0.00 | 88 | 1016.8 |
| 20260906043140 | 21 | 22 | 0.0 | 3.2 | 0.00 | 0.00 | 0.00 | 88 | 1016.9 |
| 20260906042639 | 21 | 141 | 1.6 | 3.2 | 0.00 | 0.00 | 0.00 | 88 | 1017.0 |
| 20260906042133 | 21 | 4 | 0.0 | 4.8 | 0.00 | 0.00 | 0.00 | 89 | 1017.0 |
| 20260906041629 | 21 | 133 | 3.2 | 6.4 | 0.00 | 0.00 | 0.00 | 88 | 1016.9 |
| 20260906041130 | 21 | 147 | 0.0 | 3.2 | 0.00 | 0.00 | 0.00 | 88 | 1016.7 |
| 20260906040625 | 21 | 346 | 3.2 | 9.7 | 0.00 | 0.00 | 0.00 | 88 | 1016.9 |
| 20260906040121 | 21 | 20 | 1.6 | 3.2 | 0.00 | 0.03 | 0.03 | 88 | 1016.5 |
| 20260906035615 | 22 | 156 | 0.0 | 6.4 | 0.00 | 0.03 | 0.03 | 88 | 1016.6 |
| 20260906035112 | 22 | 77 | 1.6 | 8.0 | 0.00 | 0.03 | 0.03 | 88 | 1016.8 |
| 20260906034611 | 22 | 349 | 3.2 | 4.8 | 0.00 | 0.03 | 0.03 | 87 | 1016.5 |
| 20260906034106 | 22 | 49 | 3.2 | 4.8 | 0.00 | 0.03 | 0.03 | 87 | 1016.7 |
| 20260906033602 | 22 | 106 | 3.2 | 6.4 | 0.00 | 0.03 | 0.03 | 87 | 1016.7 |
| 20260906033057 | 22 | 89 | 0.0 | 3.2 | 0.00 | 0.03 | 0.03 | 87 | 1016.7 |
| 20260906032554 | 22 | 131 | 0.0 | 3.2 | 0.00 | 0.03 | 0.03 | 87 | 1016.5 |
| 20260906032053 | 22 | 129 | 0.0 | 3.2 | 0.00 | 0.03 | 0.03 | 87 | 1016.3 |
| 20260906031549 | 22 | 87 | 0.0 | 6.4 | 0.00 | 0.03 | 0.03 | 86 | 1016.4 |
| 20260906031044 | 22 | 128 | 1.6 | 4.8 | 0.00 | 0.03 | 0.03 | 86 | 1016.5 |
| 20260906030544 | 22 | 45 | 1.6 | 4.8 | 0.00 | 0.03 | 0.03 | 86 | 1016.4 |
| 20260906030044 | 22 | 160 | 0.0 | 1.6 | 0.00 | 0.03 | 0.03 | 87 | 1016.5 |
| 20260906025544 | 22 | 21 | 1.6 | 3.2 | 0.00 | 0.03 | 0.03 | 86 | 1016.3 |
| 20260906025042 | 22 | 93 | 3.2 | 3.2 | 0.00 | 0.03 | 0.03 | 87 | 1016.4 |
| 20260906024537 | 22 | 180 | 0.0 | 4.8 | 0.00 | 0.03 | 0.03 | 86 | 1016.3 |
| 20260906024037 | 22 | 38 | 1.6 | 3.2 | 0.00 | 0.03 | 0.03 | 86 | 1016.1 |
| 20260906023533 | 22 | 221 | 0.0 | 4.8 | 0.00 | 0.03 | 0.03 | 86 | 1016.4 |
| 20260906023028 | 22 | 19 | 1.6 | 4.8 | 0.00 | 0.03 | 0.03 | 86 | 1016.4 |
| 20260906022523 | 22 | 75 | 3.2 | 8.0 | 0.00 | 0.03 | 0.03 | 86 | 1016.3 |
| 20260906022019 | 22 | 81 | 3.2 | 6.4 | 0.00 | 0.03 | 0.03 | 85 | 1016.3 |
| 20260906021515 | 22 | 65 | 1.6 | 4.8 | 0.00 | 0.03 | 0.03 | 86 | 1016.2 |
| 20260906021008 | 22 | 15 | 4.8 | 4.8 | 0.00 | 0.03 | 0.03 | 86 | 1016.1 |
| 20260906020507 | 22 | 128 | 3.2 | 8.0 | 0.00 | 0.03 | 0.03 | 86 | 1016.3 |
| 20260906020007 | 22 | 335 | 0.0 | 4.8 | 0.00 | 0.03 | 0.03 | 85 | 1016.3 |
| 20260906015506 | 22 | 19 | 0.0 | 3.2 | 0.00 | 0.03 | 0.03 | 86 | 1016.1 |
| 20260906015007 | 22 | 335 | 0.0 | 3.2 | 0.00 | 0.03 | 0.03 | 86 | 1016.4 |
| 20260906014501 | 22 | 120 | 0.0 | 3.2 | 0.00 | 0.03 | 0.03 | 86 | 1016.0 |
| 20260906013957 | 22 | 104 | 1.6 | 4.8 | 0.00 | 0.03 | 0.03 | 85 | 1016.1 |
| 20260906013452 | 22 | 81 | 3.2 | 3.2 | 0.00 | 0.03 | 0.03 | 85 | 1016.1 |
| 20260906012943 | 22 | 53 | 0.0 | 3.2 | 0.00 | 0.03 | 0.03 | 85 | 1016.2 |
| 20260906012442 | 22 | 7 | 1.6 | 3.2 | 0.00 | 0.03 | 0.03 | 86 | 1016.0 |
| 20260906011942 | 22 | 356 | 3.2 | 4.8 | 0.00 | 0.03 | 0.03 | 86 | 1016.0 |
| 20260906011437 | 22 | 38 | 3.2 | 6.4 | 0.00 | 0.03 | 0.03 | 86 | 1015.8 |
| 20260906010932 | 22 | 89 | 3.2 | 4.8 | 0.00 | 0.03 | 0.03 | 87 | 1015.7 |
| 20260906010428 | 22 | 104 | 3.2 | 6.4 | 0.00 | 0.03 | 0.03 | 87 | 1015.7 |
| 20260906005924 | 22 | 87 | 1.6 | 6.4 | 0.00 | 0.03 | 0.03 | 87 | 1015.5 |
| 20260906005423 | 22 | 61 | 3.2 | 4.8 | 0.00 | 0.03 | 0.03 | 87 | 1015.6 |
| 20260906004922 | 23 | 23 | 3.2 | 6.4 | 0.00 | 0.03 | 0.03 | 87 | 1015.5 |
| 20260906004416 | 23 | 56 | 3.2 | 6.4 | 0.00 | 0.03 | 0.03 | 87 | 1015.3 |
| 20260906003912 | 23 | 62 | 0.0 | 6.4 | 0.00 | 0.03 | 0.03 | 86 | 1015.3 |
| 20260906003407 | 23 | 250 | 1.6 | 4.8 | 0.00 | 0.03 | 0.03 | 86 | 1015.3 |
| 20260906002903 | 23 | 64 | 4.8 | 4.8 | 0.00 | 0.03 | 0.03 | 86 | 1015.1 |
| 20260906002402 | 23 | 99 | 3.2 | 6.4 | 0.00 | 0.03 | 0.03 | 85 | 1015.3 |
| 20260906001857 | 23 | 337 | 3.2 | 9.7 | 0.00 | 0.03 | 0.03 | 84 | 1015.0 |
| 20260906001354 | 23 | 94 | 3.2 | 9.7 | 0.00 | 0.03 | 0.03 | 84 | 1015.2 |
| 20260906000854 | 23 | 354 | 1.6 | 8.0 | 0.00 | 0.03 | 0.03 | 84 | 1015.0 |
| 20260906000355 | 24 | 20 | 3.2 | 6.4 | 0.00 | 0.03 | 0.03 | 83 | 1015.3 |
| 20260905235848 | 24 | 69 | 1.6 | 12.9 | 0.00 | 0.03 | 0.03 | 82 | 1015.1 |
| 20260905235343 | 25 | 83 | 4.8 | 8.0 | 0.00 | 0.03 | 0.03 | 82 | 1015.0 |
| 20260905234838 | 25 | 128 | 0.0 | 8.0 | 0.00 | 0.03 | 0.03 | 81 | 1015.0 |
| 20260905234333 | 25 | 71 | 3.2 | 11.3 | 0.00 | 0.03 | 0.03 | 81 | 1014.9 |
| 20260905233828 | 25 | 93 | 1.6 | 4.8 | 0.00 | 0.03 | 0.03 | 81 | 1014.9 |
| 20260905233323 | 25 | 315 | 0.0 | 4.8 | 0.00 | 0.03 | 0.03 | 81 | 1014.8 |
| 20260905232822 | 25 | 48 | 3.2 | 6.4 | 0.00 | 0.03 | 0.03 | 80 | 1014.6 |
| 20260905232319 | 26 | 92 | 1.6 | 4.8 | 0.00 | 0.03 | 0.03 | 80 | 1014.5 |
| 20260905231814 | 26 | 147 | 3.2 | 4.8 | 0.00 | 0.03 | 0.03 | 79 | 1014.5 |
| 20260905231309 | 26 | 95 | 3.2 | 4.8 | 0.00 | 0.03 | 0.03 | 77 | 1014.4 |
| 20260905230805 | 27 | 320 | 0.0 | 4.8 | 0.00 | 0.03 | 0.03 | 76 | 1014.5 |
| 20260905230303 | 27 | 340 | 3.2 | 4.8 | 0.00 | 0.03 | 0.03 | 76 | 1014.3 |
| 20260905225803 | 27 | 154 | 0.0 | 4.8 | 0.00 | 0.03 | 0.03 | 76 | 1014.5 |
| 20260905225258 | 27 | 0 | 3.2 | 9.7 | 0.00 | 0.03 | 0.03 | 73 | 1014.3 |
| 20260905224757 | 28 | 359 | 8.0 | 9.7 | 0.00 | 0.03 | 0.03 | 72 | 1014.3 |
| 20260905224253 | 28 | 287 | 3.2 | 6.4 | 0.00 | 0.03 | 0.03 | 71 | 1014.1 |
| 20260905223748 | 28 | 28 | 1.6 | 1.6 | 0.00 | 0.03 | 0.03 | 70 | 1013.9 |
| 20260905223246 | 28 | 204 | 1.6 | 8.0 | 0.00 | 0.03 | 0.03 | 72 | 1013.9 |
| 20260905222741 | 28 | 13 | 0.0 | 4.8 | 0.00 | 0.03 | 0.03 | 74 | 1014.0 |
| 20260905222240 | 28 | 315 | 3.2 | 4.8 | 0.00 | 0.03 | 0.03 | 73 | 1013.9 |
| 20260905221736 | 27 | 281 | 3.2 | 6.4 | 0.00 | 0.03 | 0.03 | 74 | 1013.8 |
| 20260905221233 | 27 | 332 | 3.2 | 4.8 | 0.00 | 0.03 | 0.03 | 75 | 1013.8 |
| 20260905220728 | 28 | 225 | 0.0 | 9.7 | 0.00 | 0.03 | 0.03 | 73 | 1013.8 |
| 20260905220224 | 28 | 166 | 3.2 | 8.0 | 0.00 | 0.03 | 0.03 | 73 | 1013.7 |
| 20260905215723 | 28 | 227 | 0.0 | 4.8 | 0.00 | 0.03 | 0.03 | 73 | 1013.6 |
| 20260905215219 | 28 | 313 | 0.0 | 9.7 | 0.00 | 0.03 | 0.03 | 73 | 1013.7 |
| 20260905214715 | 28 | 324 | 0.0 | 6.4 | 0.00 | 0.03 | 0.03 | 73 | 1013.7 |
| 20260905214210 | 28 | 133 | 3.2 | 6.4 | 0.00 | 0.03 | 0.03 | 73 | 1013.5 |
| 20260905213705 | 29 | 340 | 1.6 | 3.2 | 0.00 | 0.03 | 0.03 | 73 | 1013.5 |
| 20260905213201 | 29 | 224 | 0.0 | 4.8 | 0.00 | 0.03 | 0.03 | 73 | 1013.6 |
| 20260905212656 | 29 | 91 | 1.6 | 6.4 | 0.00 | 0.03 | 0.03 | 73 | 1013.4 |
| 20260905212155 | 29 | 134 | 1.6 | 3.2 | 0.00 | 0.03 | 0.03 | 73 | 1013.7 |
| 20260905211650 | 29 | 309 | 0.0 | 3.2 | 0.00 | 0.03 | 0.03 | 74 | 1013.6 |
| 20260905211146 | 28 | 347 | 0.0 | 3.2 | 0.00 | 0.03 | 0.03 | 75 | 1013.5 |
| 20260905210643 | 28 | 11 | 0.0 | 8.0 | 0.00 | 0.03 | 0.03 | 75 | 1013.7 |
| 20260905210142 | 28 | 111 | 3.2 | 3.2 | 0.00 | 0.03 | 0.03 | 77 | 1013.7 |
| 20260905205641 | 28 | 124 | 3.2 | 4.8 | 0.00 | 0.03 | 0.03 | 80 | 1013.8 |
| 20260905205136 | 27 | 264 | 0.0 | 0.0 | 0.00 | 0.03 | 0.03 | 83 | 1013.7 |
| 20260905204635 | 27 | 103 | 0.0 | 3.2 | 0.00 | 0.03 | 0.03 | 84 | 1013.8 |
| 20260905204131 | 27 | 276 | 0.0 | 3.2 | 0.05 | 0.03 | 0.03 | 83 | 1013.6 |
| 20260905203631 | 27 | 18 | 1.6 | 3.2 | 0.18 | 0.03 | 0.03 | 82 | 1013.8 |
| 20260905203126 | 28 | 314 | 1.6 | 3.2 | 0.13 | 0.03 | 0.03 | 78 | 1013.6 |
| 20260905202622 | 28 | 243 | 0.0 | 6.4 | 0.00 | 0.00 | 0.00 | 74 | 1013.4 |
| 20260905202117 | 29 | 306 | 0.0 | 4.8 | 0.00 | 0.00 | 0.00 | 71 | 1013.7 |
| 20260905201613 | 30 | 324 | 3.2 | 3.2 | 0.00 | 0.00 | 0.00 | 68 | 1013.8 |
| 20260905201112 | 30 | 182 | 3.2 | 3.2 | 0.00 | 0.00 | 0.00 | 67 | 1013.7 |
| 20260905200608 | 30 | 174 | 1.6 | 3.2 | 0.00 | 0.00 | 0.00 | 66 | 1013.7 |
| 20260905195601 | 31 | 219 | 0.0 | 3.2 | 0.00 | 0.00 | 0.00 | 65 | 1014.0 |
| 20260905195057 | 31 | 292 | 3.2 | 3.2 | 0.00 | 0.00 | 0.00 | 64 | 1013.9 |
| 20260905194556 | 30 | 309 | 0.0 | 3.2 | 0.00 | 0.00 | 0.00 | 71 | 1013.9 |
| 20260905194056 | 30 | 343 | 3.2 | 3.2 | 0.00 | 0.00 | 0.00 | 69 | 1013.9 |
| 20260905193551 | 30 | 33 | 1.6 | 4.8 | 0.00 | 0.00 | 0.00 | 69 | 1013.9 |
| 20260905193046 | 30 | 19 | 3.2 | 3.2 | 0.00 | 0.00 | 0.00 | 71 | 1014.2 |
| 20260905192541 | 30 | 157 | 1.6 | 3.2 | 0.00 | 0.00 | 0.00 | 70 | 1014.1 |
| 20260905192038 | 28 | 14 | 0.0 | 6.4 | 0.00 | 0.00 | 0.00 | 74 | 1014.3 |
| 20260905191536 | 28 | 89 | 0.0 | 3.2 | 0.00 | 0.00 | 0.00 | 72 | 1014.3 |
| 20260905191036 | 29 | 103 | 0.0 | 4.8 | 0.00 | 0.00 | 0.00 | 71 | 1014.5 |
| 20260905190533 | 28 | 326 | 0.0 | 3.2 | 0.00 | 0.00 | 0.00 | 74 | 1014.3 |
| 20260905190028 | 28 | 233 | 3.2 | 3.2 | 0.00 | 0.00 | 0.00 | 75 | 1014.3 |
| 20260905185527 | 28 | 230 | 0.0 | 3.2 | 0.00 | 0.00 | 0.00 | 75 | 1014.4 |
| 20260905185027 | 28 | 135 | 0.0 | 3.2 | 0.00 | 0.00 | 0.00 | 74 | 1014.5 |
| 20260905184526 | 28 | 278 | 1.6 | 3.2 | 0.00 | 0.00 | 0.00 | 77 | 1014.5 |
| 20260905184025 | 28 | 269 | 3.2 | 4.8 | 0.00 | 0.00 | 0.00 | 76 | 1014.3 |
| 20260905183520 | 27 | 224 | 1.6 | 4.8 | 0.00 | 0.00 | 0.00 | 77 | 1014.6 |
| 20260905183015 | 27 | 222 | 3.2 | 3.2 | 0.00 | 0.00 | 0.00 | 76 | 1014.8 |
| 20260905182514 | 27 | 260 | 3.2 | 4.8 | 0.00 | 0.00 | 0.00 | 79 | 1015.0 |
| 20260905182009 | 27 | 252 | 0.0 | 4.8 | 0.00 | 0.00 | 0.00 | 78 | 1015.0 |
| 20260905181504 | 26 | 212 | 3.2 | 6.4 | 0.00 | 0.00 | 0.00 | 81 | 1014.5 |
| 20260905181003 | 26 | 206 | 1.6 | 8.0 | 0.00 | 0.00 | 0.00 | 80 | 1014.9 |
| 20260905180458 | 27 | 216 | 6.4 | 11.3 | 0.00 | 0.00 | 0.00 | 78 | 1015.0 |
| 20260905175953 | 27 | 227 | 1.6 | 4.8 | 0.00 | 0.00 | 0.00 | 78 | 1015.0 |
| 20260905175452 | 27 | 303 | 0.0 | 3.2 | 0.00 | 0.00 | 0.00 | 76 | 1015.0 |
| 20260905174949 | 27 | 278 | 3.2 | 3.2 | 0.00 | 0.00 | 0.00 | 77 | 1014.9 |
| 20260905174449 | 27 | 35 | 3.2 | 4.8 | 0.00 | 0.00 | 0.00 | 76 | 1014.9 |
| 20260905173945 | 27 | 197 | 3.2 | 4.8 | 0.00 | 0.00 | 0.00 | 76 | 1014.8 |
| 20260905173441 | 27 | 262 | 4.8 | 6.4 | 0.00 | 0.00 | 0.00 | 75 | 1014.9 |
| 20260905172936 | 28 | 250 | 4.8 | 6.4 | 0.00 | 0.00 | 0.00 | 74 | 1014.9 |
| 20260905172434 | 28 | 260 | 3.2 | 8.0 | 0.00 | 0.00 | 0.00 | 74 | 1014.9 |
| 20260905171930 | 27 | 6 | 3.2 | 6.4 | 0.00 | 0.00 | 0.00 | 76 | 1015.0 |
| 20260905171426 | 27 | 271 | 3.2 | 8.0 | 0.00 | 0.00 | 0.00 | 79 | 1015.2 |
| 20260905170922 | 27 | 222 | 6.4 | 8.0 | 0.00 | 0.00 | 0.00 | 77 | 1015.0 |
| 20260905170418 | 27 | 196 | 4.8 | 8.0 | 0.00 | 0.00 | 0.00 | 77 | 1015.1 |
| 20260905165918 | 27 | 203 | 4.8 | 9.7 | 0.00 | 0.00 | 0.00 | 77 | 1015.1 |
| 20260905165413 | 27 | 211 | 4.8 | 9.7 | 0.00 | 0.00 | 0.00 | 76 | 1015.4 |
| 20260905164908 | 27 | 265 | 3.2 | 6.4 | 0.00 | 0.00 | 0.00 | 78 | 1015.2 |
| 20260905164402 | 26 | 206 | 3.2 | 6.4 | 0.00 | 0.00 | 0.00 | 79 | 1015.4 |
| 20260905163857 | 26 | 183 | 3.2 | 6.4 | 0.00 | 0.00 | 0.00 | 77 | 1015.3 |
| 20260905163354 | 27 | 212 | 9.7 | 9.7 | 0.00 | 0.00 | 0.00 | 77 | 1015.4 |
| 20260905162850 | 27 | 167 | 4.8 | 8.0 | 0.00 | 0.00 | 0.00 | 75 | 1015.4 |
| 20260905162349 | 27 | 221 | 4.8 | 6.4 | 0.00 | 0.00 | 0.00 | 76 | 1015.4 |
| 20260905161844 | 26 | 243 | 4.8 | 6.4 | 0.00 | 0.00 | 0.00 | 79 | 1015.5 |
| 20260905161344 | 26 | 221 | 3.2 | 4.8 | 0.00 | 0.00 | 0.00 | 80 | 1015.5 |
| 20260905160842 | 25 | 249 | 0.0 | 3.2 | 0.00 | 0.00 | 0.00 | 79 | 1015.4 |
| 20260905160337 | 25 | 93 | 0.0 | 1.6 | 0.00 | 0.00 | 0.00 | 79 | 1015.6 |
| 20260905155831 | 25 | 6 | 0.0 | 1.6 | 0.00 | 0.00 | 0.00 | 79 | 1015.7 |
| 20260905155331 | 25 | 154 | 0.0 | 3.2 | 0.00 | 0.00 | 0.00 | 79 | 1015.8 |
| 20260905154830 | 26 | 215 | 1.6 | 6.4 | 0.00 | 0.00 | 0.00 | 79 | 1015.5 |
| 20260905154326 | 26 | 293 | 0.0 | 6.4 | 0.00 | 0.00 | 0.00 | 78 | 1015.3 |
| 20260905153821 | 26 | 333 | 3.2 | 3.2 | 0.00 | 0.00 | 0.00 | 79 | 1015.3 |
| 20260905153318 | 26 | 241 | 1.6 | 3.2 | 0.00 | 0.00 | 0.00 | 78 | 1015.3 |
| 20260905152817 | 25 | 131 | 3.2 | 4.8 | 0.00 | 0.00 | 0.00 | 79 | 1015.5 |
| 20260905152316 | 25 | 243 | 4.8 | 6.4 | 0.00 | 0.00 | 0.00 | 80 | 1015.3 |
| 20260905151812 | 25 | 158 | 4.8 | 8.0 | 0.00 | 0.00 | 0.00 | 82 | 1015.1 |
| 20260905151307 | 25 | 171 | 3.2 | 8.0 | 0.00 | 0.00 | 0.00 | 82 | 1015.4 |
| 20260905150807 | 25 | 206 | 4.8 | 6.4 | 0.00 | 0.00 | 0.00 | 82 | 1015.5 |
| 20260905150307 | 24 | 213 | 3.2 | 4.8 | 0.00 | 0.00 | 0.00 | 84 | 1015.6 |
| 20260905145804 | 24 | 222 | 1.6 | 6.4 | 0.00 | 0.00 | 0.00 | 84 | 1015.6 |
| 20260905145259 | 23 | 192 | 4.8 | 4.8 | 0.00 | 0.00 | 0.00 | 85 | 1015.3 |
| 20260905144757 | 23 | 275 | 1.6 | 6.4 | 0.00 | 0.00 | 0.00 | 83 | 1015.3 |
| 20260905144253 | 24 | 223 | 3.2 | 6.4 | 0.00 | 0.00 | 0.00 | 83 | 1015.4 |
| 20260905143752 | 24 | 161 | 0.0 | 4.8 | 0.00 | 0.00 | 0.00 | 83 | 1015.3 |
| 20260905143247 | 25 | 177 | 1.6 | 4.8 | 0.00 | 0.00 | 0.00 | 82 | 1015.5 |
| 20260905142745 | 24 | 240 | 0.0 | 3.2 | 0.00 | 0.00 | 0.00 | 82 | 1015.4 |
| 20260905142240 | 24 | 168 | 1.6 | 3.2 | 0.00 | 0.00 | 0.00 | 84 | 1015.4 |
| 20260905141736 | 23 | 154 | 3.2 | 4.8 | 0.00 | 0.00 | 0.00 | 85 | 1015.3 |
| 20260905141232 | 23 | 193 | 0.0 | 1.6 | 0.00 | 0.00 | 0.00 | 84 | 1015.2 |
| 20260905140727 | 23 | 147 | 1.6 | 3.2 | 0.00 | 0.00 | 0.00 | 84 | 1015.1 |
| 20260905140221 | 23 | 329 | 0.0 | 0.0 | 0.00 | 0.00 | 0.00 | 84 | 1015.4 |
| 20260905135720 | 23 | 322 | 0.0 | 1.6 | 0.00 | 0.00 | 0.00 | 84 | 1015.0 |
| 20260905135217 | 23 | 239 | 1.6 | 3.2 | 0.00 | 0.00 | 0.00 | 83 | 1015.0 |
| 20260905134716 | 23 | 186 | 0.0 | 4.8 | 0.00 | 0.00 | 0.00 | 85 | 1014.8 |
| 20260905134215 | 24 | 178 | 4.8 | 11.3 | 0.00 | 0.00 | 0.00 | 82 | 1014.6 |
| 20260905133716 | 24 | 145 | 6.4 | 8.0 | 0.00 | 0.00 | 0.00 | 83 | 1014.9 |
| 20260905133211 | 24 | 212 | 3.2 | 8.0 | 0.00 | 0.00 | 0.00 | 84 | 1014.5 |
| 20260905132710 | 23 | 202 | 9.7 | 9.7 | 0.00 | 0.00 | 0.00 | 84 | 1014.5 |
| 20260905132205 | 23 | 207 | 4.8 | 9.7 | 0.00 | 0.00 | 0.00 | 84 | 1014.5 |
| 20260905131700 | 23 | 214 | 6.4 | 9.7 | 0.00 | 0.00 | 0.00 | 85 | 1014.3 |
| 20260905131156 | 23 | 195 | 3.2 | 8.0 | 0.00 | 0.00 | 0.00 | 84 | 1014.5 |
| 20260905130656 | 23 | 180 | 3.2 | 9.7 | 0.00 | 0.00 | 0.00 | 85 | 1014.6 |
| 20260905130155 | 23 | 218 | 3.2 | 6.4 | 0.00 | 0.00 | 0.00 | 86 | 1014.4 |
| 20260905125649 | 23 | 183 | 3.2 | 4.8 | 0.00 | 0.00 | 0.00 | 86 | 1014.5 |
| 20260905125145 | 23 | 163 | 6.4 | 9.7 | 0.00 | 0.00 | 0.00 | 86 | 1014.3 |
| 20260905124641 | 23 | 180 | 0.0 | 6.4 | 0.00 | 0.00 | 0.00 | 88 | 1014.4 |
| 20260905124138 | 22 | 182 | 1.6 | 6.4 | 0.00 | 0.00 | 0.00 | 89 | 1014.6 |
| 20260905123632 | 22 | 205 | 3.2 | 8.0 | 0.00 | 0.00 | 0.00 | 89 | 1014.5 |
| 20260905123130 | 22 | 148 | 4.8 | 4.8 | 0.00 | 0.00 | 0.00 | 90 | 1014.4 |
| 20260905122629 | 22 | 200 | 3.2 | 4.8 | 0.00 | 0.00 | 0.00 | 91 | 1014.3 |
| 20260905122124 | 21 | 185 | 1.6 | 6.4 | 0.00 | 0.00 | 0.00 | 92 | 1014.6 |
| 20260905121619 | 21 | 185 | 4.8 | 6.4 | 0.00 | 0.00 | 0.00 | 92 | 1014.4 |
| 20260905121114 | 21 | 192 | 3.2 | 6.4 | 0.00 | 0.00 | 0.00 | 92 | 1014.5 |
| 20260905120613 | 21 | 175 | 3.2 | 4.8 | 0.00 | 0.00 | 0.00 | 92 | 1014.5 |
| 20260905120108 | 21 | 166 | 4.8 | 6.4 | 0.00 | 0.00 | 0.00 | 92 | 1014.2 |
| 20260905115607 | 21 | 181 | 3.2 | 8.0 | 0.00 | 0.00 | 0.00 | 92 | 1014.4 |
| 20260905115102 | 21 | 160 | 3.2 | 6.4 | 0.00 | 0.00 | 0.00 | 92 | 1014.3 |
| 20260905114602 | 21 | 209 | 4.8 | 6.4 | 0.00 | 0.00 | 0.00 | 92 | 1014.2 |
| 20260905114101 | 21 | 177 | 4.8 | 8.0 | 0.00 | 0.00 | 0.00 | 92 | 1014.1 |
| 20260905113555 | 21 | 176 | 8.0 | 9.7 | 0.00 | 0.00 | 0.00 | 91 | 1014.3 |
| 20260905113051 | 21 | 153 | 6.4 | 8.0 | 0.00 | 0.00 | 0.00 | 91 | 1014.0 |
| 20260905112546 | 21 | 159 | 3.2 | 6.4 | 0.00 | 0.00 | 0.00 | 91 | 1014.1 |
| 20260905112042 | 21 | 163 | 3.2 | 6.4 | 0.00 | 0.00 | 0.00 | 91 | 1014.0 |
| 20260905111537 | 21 | 174 | 3.2 | 6.4 | 0.00 | 0.00 | 0.00 | 91 | 1013.8 |
| 20260905111036 | 21 | 164 | 3.2 | 6.4 | 0.00 | 0.00 | 0.00 | 91 | 1014.0 |
| 20260905110535 | 21 | 190 | 3.2 | 8.0 | 0.00 | 0.00 | 0.00 | 91 | 1013.7 |
| 20260905110031 | 21 | 161 | 3.2 | 8.0 | 0.00 | 0.00 | 0.00 | 91 | 1013.7 |
| 20260905105530 | 21 | 194 | 6.4 | 6.4 | 0.00 | 0.00 | 0.00 | 91 | 1013.9 |
| 20260905105029 | 21 | 188 | 3.2 | 4.8 | 0.00 | 0.00 | 0.00 | 91 | 1013.8 |
| 20260905104526 | 21 | 178 | 3.2 | 6.4 | 0.00 | 0.00 | 0.00 | 91 | 1013.7 |
| 20260905104025 | 21 | 186 | 4.8 | 6.4 | 0.00 | 0.00 | 0.00 | 91 | 1013.8 |
| 20260905103520 | 21 | 191 | 3.2 | 4.8 | 0.00 | 0.00 | 0.00 | 91 | 1013.8 |
| 20260905103017 | 21 | 170 | 4.8 | 6.4 | 0.00 | 0.00 | 0.00 | 91 | 1013.8 |
| 20260905102512 | 21 | 184 | 3.2 | 6.4 | 0.00 | 0.00 | 0.00 | 90 | 1013.8 |
| 20260905102008 | 21 | 199 | 3.2 | 3.2 | 0.00 | 0.00 | 0.00 | 90 | 1013.9 |
| 20260905101507 | 21 | 181 | 3.2 | 4.8 | 0.00 | 0.00 | 0.00 | 90 | 1013.8 |
| 20260905101005 | 21 | 193 | 1.6 | 1.6 | 0.00 | 0.00 | 0.00 | 90 | 1013.8 |
| 20260905100501 | 21 | 266 | 1.6 | 3.2 | 0.00 | 0.00 | 0.00 | 89 | 1013.6 |